This demonstration page uses our WeatherBlox Daily Observations layout. Learn more.

39.92423, -83.80882

Hourly Observations for May 16, 2015

Temp ( °F °C ) Dew Point ( °F °C ) Humidity (%) Winds ( mph kmh ) Pressure ( in mb ) Visibility ( mi km ) Precip ( " mm )
12:56 am 00:56 Hazy 72 22.2 64 17.7 76 76 SSW 13 20 30.08 1019 6 9.65604 0 0
1:32 am 01:32 Mostly Cloudy with Nearby Thunderstorms 73 23 64 18 74 74 WSW 22 35 30.12 1020 6 9.65604 0 0
1:47 am 01:47 Mostly Cloudy with Haze 70 21 63 17 78 78 WSW 16 26 30.12 1020 6 9.65604 0 0
1:56 am 01:56 Mostly Cloudy with Haze 70 21.1 64 17.7 81 81 W 16 26 30.12 1020 6 9.65604 0 0
2:08 am 02:08 Mostly Cloudy with Heavy Rain 68 20 64 18 88 88 WSW 14 22 30.09 1019 2.5 4.02335 0.03 0.762
2:34 am 02:34 Mostly Cloudy with Light Rain 66 19 64 18 94 94 SSW 8 13 30.09 1019 5 8.0467 0.11 2.794
2:56 am 02:56 Partly Cloudy with Mist and Fog 65 18.3 64 17.7 96 96 SW 6 9 30.09 1019 6 9.65604 0.11 2.794
3:56 am 03:56 Clear with Mist and Fog 65 18.3 65 18.3 100 100 S 3 6 30.08 1019 5 8.0467 0 0
4:56 am 04:56 Mostly Clear with Mist and Fog 65 18.3 64 17.7 96 96 SW 8 13 30.09 1019 6 9.65604 0 0
5:56 am 05:56 Mostly Cloudy with Mist and Fog 65 18.3 65 18.3 100 100 SSW 6 9 30.1 1019 6 9.65604 0 0
6:56 am 06:56 Partly Cloudy with Mist and Fog 65 18.3 65 18.3 100 100 SSW 5 7 30.12 1020 4 6.43736 0 0
7:56 am 07:56 Sunny with Mist and Fog 67 19.4 66 18.8 96 96 SSW 5 7 30.13 1020 4 6.43736 0 0
8:56 am 08:56 Mostly Cloudy with Mist and Fog 69 20.5 67 19.4 93 93 S 7 11 30.14 1021 4 6.43736 0 0
9:17 am 09:17 Mostly Cloudy with Mist and Fog 70 21 66 19 88 88 SSW 8 13 30.12 1020 4 6.43736 0 0
9:25 am 09:25 Mostly Cloudy with Mist and Fog 72 22 66 19 83 83 SSW 9 15 30.12 1020 4 6.43736 0 0
9:56 am 09:56 Mostly Cloudy with Mist and Fog 71 21.6 68 20 91 91 S 9 15 30.14 1021 4 6.43736 0 0
10:56 am 10:56 Cloudy with Mist and Fog 71 21.6 68 20 91 91 SSW 9 15 30.14 1021 4 6.43736 0 0
11:56 am 11:56 Mostly Cloudy with Haze 74 23.3 68 20 82 82 SW 13 20 30.14 1021 5 8.0467 0 0
12:23 pm 12:23 Hazy 73 23 66 19 78 78 SSW 14 22 30.12 1020 5 8.0467 0 0
12:56 pm 12:56 Mostly Cloudy with Haze 75 23.8 68 20 79 79 SSW 10 17 30.13 1020 5 8.0467 0 0
1:56 pm 13:56 Hazy 75 23.8 67 19.4 76 76 WSW 13 20 30.13 1020 5 8.0467 0 0
2:56 pm 14:56 Hazy 77 25 67 19.4 71 71 SW 8 13 30.12 1020 5 8.0467 0 0
3:10 pm 15:10 Mostly Cloudy with Haze 75 24 68 20 78 78 S 14 22 30.12 1020 5 8.0467 0 0
3:24 pm 15:24 Mostly Cloudy with Rain 72 22 68 20 88 88 SSW 9 15 30.12 1020 1.5 2.41401 0.04 1.016
3:26 pm 15:26 Mostly Cloudy with Heavy Rain 70 21 68 20 94 94 SSW 12 19 30.12 1020 1 1.60934 0.07 1.778
3:33 pm 15:33 Mostly Cloudy with Rain 70 21 68 20 94 94 SSW 14 22 30.12 1020 0.75 1.207005 0.11 2.794
3:38 pm 15:38 Cloudy with Light Rain 70 21 68 20 94 94 SSW 8 13 30.12 1020 1.25 2.011675 0.12 3.048
3:44 pm 15:44 Mostly Cloudy with Light Rain 70 21 68 20 94 94 SSW 8 13 30.12 1020 2 3.21868 0.13 3.302
3:56 pm 15:56 Mostly Cloudy with Mist and Fog 69 20.5 69 20.5 100 100 S 5 7 30.12 1020 3 4.82802 0.13 3.302
4:28 pm 16:28 Mostly Cloudy with Mist and Fog 70 21 70 21 100 100 S 10 17 30.09 1019 3 4.82802 0 0.0254
4:56 pm 16:56 Partly Cloudy with Mist and Fog 71 21.6 69 20.5 93 93 S 7 11 30.11 1020 4 6.43736 0 0.0254
5:12 pm 17:12 Partly Cloudy with Mist and Fog 72 22 70 21 94 94 S 7 11 30.09 1019 4 6.43736 0 0
5:26 pm 17:26 Mostly Cloudy with Mist and Fog 72 22 70 21 94 94 SSW 5 7 30.09 1019 4 6.43736 0 0
5:33 pm 17:33 Mostly Cloudy with Light Rain 72 22 70 21 94 94 SSW 7 11 30.09 1019 3 4.82802 0 0.0254
5:56 pm 17:56 Partly Cloudy with Mist and Fog 71 21.6 70 21.1 97 97 S 5 7 30.12 1020 4 6.43736 0 0.0254
6:09 pm 18:09 Mostly Cloudy with Light Rain 72 22 70 21 94 94 VRB 5 7 30.12 1020 2.5 4.02335 0.01 0.254
6:14 pm 18:14 Mostly Cloudy with Light Rain 72 22 70 21 94 94 SSW 5 7 30.12 1020 3 4.82802 0.01 0.254
6:21 pm 18:21 Mostly Cloudy with Mist and Fog 72 22 70 21 94 94 SSW 3 6 30.12 1020 3 4.82802 0.01 0.254
6:27 pm 18:27 Mostly Cloudy with Mist and Fog 72 22 70 21 94 94 S 5 7 30.09 1019 4 6.43736 0.01 0.254
6:44 pm 18:44 Mostly Cloudy with Mist and Fog 72 22 70 21 94 94 S 5 7 30.09 1019 4 6.43736 0.01 0.254
6:56 pm 18:56 Mostly Cloudy with Mist and Fog 71 21.6 69 20.5 93 93 VRB 3 6 30.11 1020 5 8.0467 0.01 0.254
7:06 pm 19:06 Mostly Cloudy with Mist and Fog 72 22 70 21 94 94 S 5 7 30.09 1019 5 8.0467 0 0
7:56 pm 19:56 Mostly Cloudy with Mist and Fog 70 21.1 69 20.5 96 96 S 6 9 30.11 1020 4 6.43736 0 0
8:56 pm 20:56 Clear with Mist and Fog 69 20.5 69 20.5 100 100 S 5 7 30.11 1020 6 9.65604 0 0
9:56 pm 21:56 Clear with Mist and Fog 68 20 68 20 100 100 S 6 9 30.12 1020 6 9.65604 0 0
10:56 pm 22:56 Partly Cloudy with Mist and Fog 68 20 68 20 100 100 S 7 11 30.13 1020 5 8.0467 0 0
11:44 pm 23:44 Mostly Clear with Mist and Fog 68 20 68 20 100 100 S 6 9 30.12 1020 5 8.0467 0 0
11:56 pm 23:56 Mostly Cloudy with Mist and Fog 68 20 68 20 100 100 S 6 9 30.13 1020 5 8.0467 0 0

Powered by AerisWeather